Location: Campestrin
(46.4667°N, 11.7167°E)
Time: 10:46:44
(UTC+00:00)

Terra - Pass Details

Date: 18 April 2021
Orbit: 701 x 703 km, 98.2° (Epoch: 06 May)

Event Time Altitude Azimuth Distance (km) Brightness Sun altitude
Exits shadow 21:28:59 56° 279° (W) 841 2.3 -27.9°
Drops below altitude 10° 21:33:21 10° 339° (NNW) 2,180 5.3 -28.3°
Sets 21:35:39 0° 343° (NNW) 3,103 6.3 -28.4°
